EW1296 Weather Reports


Display with metric or nautical units.
time (UTC)temp
F
wind
direction
speed
MPH
gust
MPH
rain 1hr
in
rain 24hr
in
rain mn
in
humidity
%
barometer
mb
20260507120516 52 338 3.0 9.0 0.00 0.18 0.16 79 1011.3
20260507120016 52 315 3.0 8.0 0.00 0.18 0.16 79 1011.3
20260507115516 52 315 3.0 10.0 0.00 0.18 0.16 79 1011.0
20260507115016 52 315 4.0 13.0 0.00 0.18 0.16 79 1011.0
20260507114516 52 315 4.0 10.0 0.00 0.18 0.16 80 1010.9
20260507114017 52 315 4.0 10.0 0.00 0.18 0.16 80 1011.0
20260507113516 52 315 3.0 6.0 0.00 0.18 0.16 81 1010.8
20260507113037 52 315 2.0 6.0 0.00 0.18 0.16 81 1010.9
20260507112516 52 315 3.0 10.0 0.00 0.18 0.16 81 1010.7
20260507112037 52 315 4.0 10.0 0.00 0.18 0.16 81 1010.6
20260507111516 52 315 5.0 12.0 0.00 0.18 0.16 81 1010.7
20260507111017 52 293 3.0 9.0 0.00 0.18 0.16 81 1010.6
20260507110516 52 315 4.0 10.0 0.00 0.18 0.16 82 1010.6
20260507110016 52 315 3.0 9.0 0.00 0.18 0.16 82 1010.5
20260507105517 52 315 4.0 10.0 0.00 0.18 0.16 82 1010.4
20260507105016 52 315 4.0 10.0 0.00 0.18 0.16 83 1010.4
20260507104536 52 338 2.0 7.0 0.00 0.18 0.16 84 1010.3
20260507104016 52 315 5.0 10.0 0.00 0.18 0.16 84 1010.3
20260507103517 52 315 3.0 11.0 0.00 0.18 0.16 84 1010.4
20260507103037 52 315 3.0 9.0 0.00 0.18 0.16 84 1010.2
20260507102516 52 315 3.0 9.0 0.00 0.18 0.16 85 1010.0
20260507102016 52 315 4.0 9.0 0.00 0.18 0.16 85 1010.2
20260507101516 52 315 3.0 8.0 0.00 0.18 0.16 85 1010.1
20260507101016 51 293 4.0 8.0 0.00 0.18 0.16 85 1010.0
20260507100516 51 315 3.0 9.0 0.00 0.18 0.16 86 1009.8
20260507100016 51 315 3.0 6.0 0.01 0.18 0.16 86 1009.8
20260507095537 51 315 3.0 9.0 0.01 0.18 0.16 86 1009.8
20260507095016 51 293 3.0 9.0 0.01 0.18 0.16 86 1009.9
20260507094516 51 315 4.0 9.0 0.01 0.18 0.16 87 1009.8
20260507094036 51 315 4.0 12.0 0.01 0.18 0.16 87 1009.6
20260507093516 51 315 4.0 9.0 0.01 0.18 0.16 87 1009.6
20260507093016 51 315 3.0 10.0 0.01 0.18 0.16 87 1009.5
20260507092536 51 315 3.0 9.0 0.01 0.18 0.16 87 1009.7
20260507092016 51 338 4.0 11.0 0.01 0.18 0.16 87 1009.5
20260507091517 51 338 4.0 10.0 0.01 0.18 0.16 87 1009.2
20260507091016 51 315 4.0 10.0 0.01 0.18 0.16 87 1009.4
20260507090516 51 315 4.0 9.0 0.01 0.18 0.16 87 1009.5
20260507090017 51 338 4.0 10.0 0.00 0.17 0.15 87 1009.5
20260507085516 51 315 3.0 6.0 0.00 0.17 0.15 87 1009.6
20260507085017 51 315 3.0 10.0 0.00 0.17 0.15 87 1009.5
20260507084516 51 315 5.0 15.0 0.00 0.17 0.15 86 1009.6
20260507084016 52 315 5.0 10.0 0.00 0.17 0.15 86 1009.8
20260507083516 52 315 5.0 12.0 0.00 0.17 0.15 86 1009.7
20260507083016 52 315 4.0 10.0 0.01 0.17 0.15 86 1009.6
20260507082516 51 315 6.0 15.0 0.01 0.17 0.15 86 1009.6
20260507082016 52 315 5.0 12.0 0.01 0.17 0.15 86 1009.1
20260507081558 52 338 6.0 10.0 0.01 0.17 0.15 86 1009.2
20260507081016 52 315 5.0 12.0 0.01 0.17 0.15 87 1009.6
20260507080516 52 315 7.0 14.0 0.01 0.17 0.15 87 1009.4
20260507080016 52 315 7.0 13.0 0.01 0.17 0.15 87 1009.4
20260507075516 52 315 6.0 14.0 0.01 0.17 0.15 87 1009.2
20260507075016 52 338 6.0 12.0 0.02 0.17 0.15 87 1009.7
20260507074536 52 338 6.0 13.0 0.02 0.17 0.15 87 1009.7
20260507074016 52 315 6.0 17.0 0.02 0.17 0.15 88 1009.5
20260507073516 52 315 6.0 17.0 0.03 0.17 0.15 88 1009.6
20260507073016 52 315 7.0 11.0 0.03 0.16 0.14 88 1009.7
20260507072516 52 315 6.0 12.0 0.04 0.16 0.14 88 1009.7
20260507072016 52 315 7.0 13.0 0.06 0.16 0.14 88 1009.5
20260507071515 53 315 6.0 13.0 0.07 0.16 0.14 88 1009.3
20260507071017 53 315 5.0 13.0 0.08 0.16 0.14 89 1009.5
20260507070537 53 315 6.0 11.0 0.09 0.16 0.14 89 1009.4
20260507070016 53 315 6.0 14.0 0.10 0.16 0.14 89 1009.2
20260507065516 53 338 5.0 9.0 0.12 0.16 0.14 89 1009.5
20260507065017 53 315 4.0 9.0 0.13 0.15 0.13 88 1009.5
20260507064515 53 315 4.0 10.0 0.13 0.15 0.13 88 1008.9
20260507064016 53 315 5.0 10.0 0.13 0.15 0.13 88 1009.1
20260507063517 54 315 4.0 11.0 0.12 0.14 0.12 87 1008.7
20260507063016 54 315 4.0 10.0 0.11 0.13 0.11 86 1008.9
20260507062517 54 293 3.0 10.0 0.10 0.12 0.10 86 1009.7
20260507062036 54 315 5.0 9.0 0.08 0.10 0.08 85 1009.5
20260507061515 54 293 4.0 10.0 0.07 0.09 0.07 84 1009.5
20260507061036 55 315 6.0 10.0 0.06 0.08 0.06 83 1008.9
20260507060515 55 315 5.0 12.0 0.05 0.07 0.05 81 1008.6
20260507060015 56 315 4.0 10.0 0.04 0.06 0.04 80 1008.5
20260507055516 56 0 4.0 9.0 0.02 0.04 0.02 78 1008.8
20260507055016 56 315 5.0 11.0 0.00 0.02 0.00 77 1008.9
20260507054535 57 315 5.0 10.0 0.00 0.02 0.00 76 1008.9
20260507054016 57 315 5.0 11.0 0.00 0.02 0.00 75 1009.0
20260507053516 57 315 5.0 12.0 0.00 0.02 0.00 74 1008.8
20260507053015 57 315 5.0 11.0 0.00 0.02 0.00 74 1008.5
20260507052517 57 315 5.0 12.0 0.00 0.02 0.00 74 1008.3
20260507052015 57 315 6.0 11.0 0.00 0.02 0.00 74 1008.3
20260507051529 57 315 4.0 8.0 0.00 0.02 0.00 73 1008.1
20260507051015 57 315 4.0 11.0 0.00 0.02 0.00 73 1008.3
20260507050515 57 315 4.0 11.0 0.00 0.02 0.00 73 1008.6
20260507050015 58 338 5.0 11.0 0.00 0.02 0.00 73 1008.7
20260507045517 58 315 5.0 11.0 0.00 0.02 0.00 73 1008.8
20260507045016 58 315 4.0 9.0 0.00 0.02 0.00 73 1008.8
20260507044515 58 315 5.0 13.0 0.00 0.02 0.00 73 1008.7
20260507044015 58 315 5.0 12.0 0.00 0.02 0.00 73 1008.8
20260507043516 58 315 5.0 10.0 0.00 0.02 0.00 72 1008.7
20260507043016 58 315 5.0 11.0 0.00 0.02 0.00 72 1008.6
20260507042515 58 315 5.0 10.0 0.00 0.02 0.00 72 1008.9
20260507042015 58 315 6.0 12.0 0.00 0.02 0.00 72 1009.0
20260507041515 58 315 5.0 11.0 0.00 0.02 0.00 72 1009.2
20260507041015 58 315 5.0 10.0 0.00 0.02 0.00 72 1009.3
20260507040535 59 315 6.0 12.0 0.00 0.02 0.00 73 1009.0
20260507040038 59 315 6.0 12.0 0.00 0.02 0.02 74 1008.9
20260507035516 59 338 6.0 16.0 0.00 0.02 0.02 75 1008.9
20260507035017 59 315 7.0 14.0 0.00 0.02 0.02 76 1008.8
20260507034517 59 315 7.0 15.0 0.00 0.02 0.02 79 1008.8
20260507034016 59 338 6.0 12.0 0.00 0.02 0.02 80 1008.9
20260507033516 60 315 4.0 11.0 0.00 0.02 0.02 82 1008.6
20260507033016 60 315 5.0 10.0 0.00 0.02 0.02 83 1008.6
20260507032516 60 293 4.0 12.0 0.00 0.02 0.02 83 1008.6
20260507032017 61 0 3.0 9.0 0.00 0.02 0.02 84 1008.6
20260507031516 61 338 4.0 10.0 0.00 0.02 0.02 85 1008.5
20260507031037 61 0 3.0 8.0 0.00 0.02 0.02 85 1008.3
20260507030516 62 0 4.0 10.0 0.00 0.02 0.02 86 1008.4
20260507030016 62 338 4.0 9.0 0.00 0.02 0.02 85 1008.4
20260507025516 62 0 3.0 10.0 0.00 0.02 0.02 85 1008.5
20260507025017 63 338 3.0 8.0 0.00 0.02 0.02 85 1008.6
20260507024516 63 315 4.0 12.0 0.00 0.02 0.02 85 1008.6
20260507024016 64 315 5.0 11.0 0.00 0.02 0.02 85 1008.7
20260507023516 64 338 5.0 13.0 0.00 0.02 0.02 85 1008.4
20260507023018 65 315 4.0 11.0 0.00 0.02 0.02 86 1008.4
20260507022516 65 315 4.0 10.0 0.00 0.02 0.02 85 1008.6
20260507022017 65 338 3.0 8.0 0.00 0.02 0.02 85 1008.4
20260507021516 65 270 5.0 10.0 0.00 0.02 0.02 84 1008.6
20260507021016 65 270 3.0 8.0 0.00 0.02 0.02 84 1008.4
20260507020516 65 293 2.0 5.0 0.00 0.02 0.02 83 1008.5
20260507020017 65 293 3.0 8.0 0.00 0.02 0.02 82 1008.3
20260507015517 65 225 2.0 6.0 0.00 0.02 0.02 82 1008.0
20260507015015 65 248 2.0 5.0 0.00 0.02 0.02 82 1007.9
20260507014516 65 225 1.0 6.0 0.00 0.02 0.02 81 1008.1
20260507014017 65 225 1.0 7.0 0.00 0.02 0.02 81 1008.0
20260507013516 65 0.0 3.0 0.00 0.02 0.02 81 1008.1
20260507013015 65 0.0 3.0 0.00 0.02 0.02 81 1008.2
20260507012516 65 225 2.0 6.0 0.00 0.02 0.02 81 1008.1
20260507012015 65 225 3.0 5.0 0.00 0.02 0.02 80 1008.0
20260507011516 65 225 1.0 4.0 0.00 0.02 0.02 80 1007.8
20260507011016 66 0.0 3.0 0.00 0.02 0.02 80 1007.8
20260507010516 66 225 2.0 3.0 0.00 0.02 0.02 79 1007.8
20260507010037 66 0.0 2.0 0.00 0.02 0.02 80 1007.8
20260507005516 66 225 1.0 3.0 0.00 0.02 0.02 80 1007.9
20260507005016 66 225 1.0 4.0 0.00 0.02 0.02 80 1007.9
20260507004536 67 225 1.0 5.0 0.00 0.02 0.02 79 1007.8
20260507004037 67 225 3.0 9.0 0.00 0.02 0.02 79 1007.7
20260507003535 67 225 2.0 7.0 0.00 0.02 0.02 79 1007.9
20260507003015 67 0.0 2.0 0.00 0.02 0.02 79 1007.8
20260507002515 67 225 1.0 5.0 0.00 0.02 0.02 79 1007.7
20260507002016 67 225 2.0 5.0 0.00 0.02 0.02 79 1007.7
20260507001537 67 248 3.0 5.0 0.00 0.02 0.02 79 1007.8
20260507001017 67 248 1.0 5.0 0.00 0.02 0.02 79 1007.9
20260507000555 67 203 3.0 8.0 0.00 0.02 0.02 79 1007.9
20260507000015 67 225 2.0 4.0 0.00 0.02 0.02 79 1007.9
20260506235535 67 225 3.0 8.0 0.00 0.02 0.02 79 1007.7
20260506235015 67 225 3.0 6.0 0.00 0.02 0.02 79 1007.7
20260506234535 67 203 2.0 6.0 0.00 0.02 0.02 79 1007.7
20260506234015 67 225 2.0 4.0 0.00 0.02 0.02 79 1007.7
20260506233516 67 225 2.0 4.0 0.00 0.02 0.02 79 1007.5
20260506233038 67 225 3.0 7.0 0.00 0.02 0.02 79 1007.5
20260506232515 67 203 1.0 5.0 0.00 0.02 0.02 79 1007.3
20260506232036 67 225 2.0 6.0 0.00 0.02 0.02 79 1007.5
20260506231516 67 225 3.0 6.0 0.00 0.02 0.02 79 1007.6
20260506231015 67 203 1.0 4.0 0.00 0.02 0.02 78 1007.5
20260506230515 67 248 2.0 5.0 0.00 0.02 0.02 78 1007.5
20260506230017 67 225 3.0 8.0 0.00 0.02 0.02 78 1007.5
20260506225658 67 225 3.0 6.0 0.00 0.02 0.02 78 1007.5
20260506225055 67 225 2.0 5.0 0.00 0.02 0.02 78 1007.4
20260506224515 68 225 3.0 7.0 0.00 0.02 0.02 78 1007.4
20260506224015 68 203 2.0 7.0 0.00 0.02 0.02 78 1007.3
20260506223517 67 225 3.0 8.0 0.00 0.02 0.02 78 1007.3
20260506223016 67 248 2.0 6.0 0.00 0.02 0.02 79 1007.2
20260506222515 67 225 4.0 9.0 0.00 0.02 0.02 79 1007.3
20260506222017 67 248 4.0 11.0 0.00 0.02 0.02 79 1007.3
20260506221515 67 203 5.0 12.0 0.00 0.02 0.02 80 1007.3
20260506221058 67 225 4.0 8.0 0.00 0.02 0.02 80 1007.3
20260506220515 67 225 4.0 8.0 0.00 0.02 0.02 80 1007.3
20260506220015 67 270 2.0 9.0 0.00 0.02 0.02 81 1007.3
20260506215535 66 248 2.0 4.0 0.00 0.02 0.02 81 1007.3
20260506215015 66 225 1.0 4.0 0.00 0.02 0.02 81 1007.2
20260506214515 66 203 3.0 6.0 0.00 0.02 0.02 81 1007.2
20260506214015 66 225 4.0 7.0 0.00 0.02 0.02 81 1007.2
20260506213515 66 203 3.0 7.0 0.00 0.02 0.02 81 1007.1
20260506213015 66 225 3.0 7.0 0.00 0.02 0.02 81 1007.0
20260506212517 66 225 3.0 8.0 0.00 0.02 0.02 81 1007.0
20260506212019 66 225 4.0 8.0 0.00 0.02 0.02 81 1007.0
20260506211517 66 225 4.0 10.0 0.00 0.02 0.02 81 1006.9
20260506211018 66 248 5.0 12.0 0.00 0.02 0.02 81 1006.9
20260506210515 66 225 4.0 10.0 0.00 0.02 0.02 81 1006.8
20260506210018 66 225 4.0 9.0 0.00 0.02 0.02 82 1006.7
20260506205517 66 225 5.0 11.0 0.00 0.02 0.02 81 1006.6
20260506205019 66 248 4.0 8.0 0.00 0.02 0.02 82 1006.6
20260506204517 66 225 5.0 11.0 0.00 0.02 0.02 82 1006.6
20260506204018 66 225 6.0 11.0 0.00 0.02 0.02 82 1006.7
20260506203517 66 203 4.0 11.0 0.00 0.02 0.02 82 1006.6
20260506203017 66 203 4.0 8.0 0.00 0.02 0.02 82 1006.7
20260506202518 65 203 4.0 10.0 0.00 0.02 0.02 81 1006.7
20260506202017 65 225 5.0 12.0 0.00 0.02 0.02 81 1006.8
20260506201519 66 225 5.0 12.0 0.00 0.02 0.02 81 1006.9
20260506201017 66 225 4.0 13.0 0.00 0.02 0.02 81 1007.0
20260506200518 66 225 6.0 14.0 0.00 0.02 0.02 81 1007.1
20260506200015 65 225 8.0 18.0 0.00 0.02 0.02 81 1007.1
20260506195517 65 225 5.0 10.0 0.00 0.02 0.02 82 1007.2
20260506195017 65 225 6.0 16.0 0.00 0.02 0.02 82 1007.2
20260506194538 65 225 5.0 15.0 0.00 0.02 0.02 82 1007.2
20260506194017 65 225 4.0 9.0 0.00 0.02 0.02 83 1007.2
20260506193517 65 225 6.0 11.0 0.00 0.02 0.02 82 1007.3
20260506193018 65 248 5.0 11.0 0.00 0.02 0.02 82 1007.3
20260506192517 65 225 8.0 17.0 0.00 0.02 0.02 82 1007.4
20260506192017 65 225 7.0 15.0 0.00 0.02 0.02 82 1007.4
20260506191517 65 248 8.0 16.0 0.00 0.02 0.02 83 1007.5
20260506191017 65 248 7.0 16.0 0.00 0.02 0.02 83 1007.4
20260506190517 65 225 6.0 14.0 0.00 0.02 0.02 84 1007.4
20260506190018 64 225 6.0 14.0 0.00 0.02 0.02 84 1007.5
20260506185515 63 225 3.0 8.0 0.00 0.02 0.02 83 1007.6
20260506185037 63 225 4.0 9.0 0.00 0.02 0.02 82 1007.6
20260506184517 63 225 2.0 7.0 0.00 0.02 0.02 82 1007.6
20260506184017 64 225 2.0 4.0 0.00 0.02 0.02 81 1007.6
20260506183517 63 0.0 4.0 0.00 0.02 0.02 80 1007.5
20260506183017 63 113 1.0 3.0 0.00 0.02 0.02 80 1007.4
20260506182517 64 113 3.0 7.0 0.00 0.02 0.02 79 1007.6
20260506182017 64 135 2.0 6.0 0.01 0.02 0.02 78 1007.8
20260506181518 64 135 2.0 7.0 0.01 0.02 0.02 78 1007.8
20260506181017 65 135 2.0 6.0 0.01 0.02 0.02 78 1008.0
20260506180518 65 113 2.0 6.0 0.01 0.02 0.02 78 1007.9
20260506180017 65 158 1.0 4.0 0.01 0.02 0.02 78 1007.8
20260506175537 66 135 2.0 7.0 0.01 0.02 0.02 77 1007.8
20260506175017 67 135 4.0 10.0 0.01 0.02 0.02 76 1007.8
20260506174517 68 135 2.0 5.0 0.01 0.02 0.02 79 1007.8
20260506174017 68 0.0 3.0 0.01 0.02 0.02 79 1007.9
20260506173537 67 0.0 2.0 0.01 0.02 0.02 79 1007.9
20260506173017 67 225 2.0 7.0 0.02 0.02 0.02 79 1007.8
20260506172518 67 225 4.0 9.0 0.02 0.02 0.02 78 1008.0
20260506172039 67 225 4.0 10.0 0.01 0.01 0.01 78 1008.0
20260506171537 67 225 4.0 9.0 0.01 0.01 0.01 78 1008.1
20260506171017 67 225 6.0 11.0 0.01 0.01 0.01 77 1008.5
20260506170518 67 225 6.0 13.0 0.01 0.01 0.01 77 1008.6
20260506170017 67 225 5.0 14.0 0.01 0.01 0.01 78 1008.7
20260506165517 67 225 5.0 12.0 0.01 0.01 0.01 77 1009.0
20260506165017 67 225 7.0 14.0 0.01 0.01 0.01 76 1009.1
20260506164517 67 225 6.0 11.0 0.01 0.01 0.01 76 1009.0
20260506164017 67 225 7.0 12.0 0.01 0.01 0.01 74 1008.9
20260506163518 67 203 6.0 14.0 0.01 0.01 0.01 73 1009.0
20260506163017 68 225 6.0 12.0 0.00 0.00 0.00 72 1009.2
20260506162518 69 225 6.0 12.0 0.00 0.00 0.00 70 1009.1
20260506162038 69 225 8.0 15.0 0.00 0.00 0.00 69 1009.2
20260506161517 70 225 7.0 13.0 0.00 0.00 0.00 66 1009.4
20260506161017 70 225 6.0 13.0 0.00 0.00 0.00 63 1009.5
20260506160518 71 225 7.0 16.0 0.00 0.00 0.00 61 1009.3
20260506160017 72 225 8.0 17.0 0.00 0.00 0.00 60 1009.4
20260506155517 72 225 6.0 15.0 0.00 0.00 0.00 59 1009.4
20260506155018 72 225 6.0 16.0 0.00 0.00 0.00 59 1009.4
20260506154517 72 248 8.0 15.0 0.00 0.00 0.00 60 1009.3
20260506154017 71 225 7.0 17.0 0.00 0.00 0.00 61 1009.3
20260506153517 71 248 9.0 20.0 0.00 0.00 0.00 61 1009.3
20260506153017 71 225 8.0 18.0 0.00 0.00 0.00 61 1009.2
20260506152517 71 248 10.0 16.0 0.00 0.00 0.00 61 1009.4
20260506152017 71 225 9.0 17.0 0.00 0.00 0.00 61 1009.5
20260506151517 71 225 9.0 15.0 0.00 0.00 0.00 61 1009.6
20260506151017 72 225 8.0 19.0 0.00 0.00 0.00 61 1009.6
20260506150516 72 225 9.0 19.0 0.00 0.00 0.00 61 1009.6
20260506150017 72 225 5.0 15.0 0.00 0.00 0.00 61 1009.6
20260506145516 72 225 3.0 11.0 0.00 0.00 0.00 62 1009.6
20260506145018 72 225 2.0 9.0 0.00 0.00 0.00 63 1009.7
20260506144517 72 225 2.0 8.0 0.00 0.00 0.00 63 1009.6
20260506144016 71 203 1.0 5.0 0.00 0.00 0.00 65 1009.6
20260506143517 70 203 1.0 4.0 0.00 0.00 0.00 65 1009.5
20260506143017 70 225 3.0 7.0 0.00 0.00 0.00 66 1009.5
20260506142558 70 203 2.0 6.0 0.00 0.00 0.00 65 1009.5
20260506142018 70 203 1.0 3.0 0.00 0.00 0.00 65 1009.5
20260506141518 70 248 2.0 8.0 0.00 0.00 0.00 65 1009.5
20260506141017 70 225 3.0 7.0 0.00 0.00 0.00 65 1009.5
20260506140517 70 135 1.0 2.0 0.00 0.00 0.00 65 1009.6
20260506140017 70 180 1.0 4.0 0.00 0.00 0.00 65 1009.6
20260506135517 70 158 2.0 8.0 0.00 0.00 0.00 66 1009.7
20260506135017 70 203 1.0 5.0 0.00 0.00 0.00 66 1009.7
20260506134538 70 225 2.0 7.0 0.00 0.00 0.00 66 1009.7
20260506134017 70 225 2.0 9.0 0.00 0.00 0.00 66 1009.7
20260506133517 69 180 2.0 6.0 0.00 0.00 0.00 66 1009.8
20260506133017 69 203 1.0 7.0 0.00 0.00 0.00 67 1009.8
20260506132516 69 158 2.0 6.0 0.00 0.00 0.00 68 1010.0
20260506132017 69 158 1.0 4.0 0.00 0.00 0.00 68 1010.0
20260506131517 69 180 2.0 7.0 0.00 0.00 0.00 69 1009.9
20260506131016 68 203 2.0 10.0 0.00 0.00 0.00 70 1009.8
20260506130536 68 225 6.0 11.0 0.00 0.00 0.00 69 1009.8
20260506130016 68 225 4.0 12.0 0.00 0.00 0.00 70 1009.7
20260506125516 67 225 7.0 15.0 0.00 0.00 0.00 71 1009.7
20260506125016 67 225 4.0 10.0 0.00 0.00 0.00 72 1009.7
20260506124538 67 225 4.0 12.0 0.00 0.00 0.00 72 1009.7
20260506124017 66 203 4.0 10.0 0.00 0.00 0.00 72 1009.7
20260506123516 66 225 4.0 10.0 0.00 0.00 0.00 72 1009.8
20260506123038 66 225 3.0 8.0 0.00 0.00 0.00 72 1009.9
20260506122617 67 225 2.0 9.0 0.00 0.00 0.00 72 1009.9
20260506122018 67 225 3.0 9.0 0.00 0.00 0.00 71 1009.8
20260506121517 67 203 3.0 7.0 0.00 0.00 0.00 71 1009.8
20260506121016 67 225 3.0 7.0 0.00 0.00 0.00 72 1010.0